Date String (YYYY-MM-DD hh:mm:ss) UTC,Instrument flags,Ambient pressure (hPa),Sample flow (lpm),Bypass flow (lpm),Sample temperature (°C),Ambient temperature (°C),ASC tube jacket temperature (°C),LED temperature (°C),Box temperature (°C),Sample RH (%),Span deviation,Mass concentration (μg/m³),Mass concentration (μg/m³),Mass concentration (μg/m³)
DateTimeUTC,F1_M11,P_M11,Q1_M11,Q2_M11,T1_M11,T2_M11,T3_M11,T4_M11,T5_M11,U1_M11,ZSPAN_M11,X0_M11,X2_M11,X1_M11
2021-08-25 02:00:00,,0827.8,5.00,0.00,29.2,28.1,00.0,38.1,31.1,16.9,0002.6,0013.90,0004.87,0004.13
2021-08-25 02:01:00,,0827.9,5.00,0.00,29.1,26.1,00.0,38.0,30.4,17.1,0002.7,0014.00,0004.85,0004.12
2021-08-25 02:02:00,,0827.9,5.00,0.00,28.9,25.2,00.0,38.0,30.1,17.1,0002.8,0014.23,0004.85,0004.12
2021-08-25 02:03:00,,0827.9,5.00,0.00,28.8,25.6,00.0,38.0,30.2,17.1,0003.1,0014.33,0004.89,0004.13
2021-08-25 02:04:00,,0827.9,5.00,0.00,28.8,26.0,00.0,37.9,30.4,17.0,0002.9,0014.48,0004.93,0004.14
2021-08-25 02:05:00,,0827.9,5.01,0.00,28.8,26.6,00.0,37.9,30.5,17.1,0002.5,0014.04,0005.00,0004.13
2021-08-25 02:06:00,,0827.9,5.00,0.00,28.8,27.0,00.0,37.9,30.7,17.1,0002.6,0013.30,0005.03,0004.14
2021-08-25 02:07:00,,0827.9,5.00,0.00,28.9,27.4,00.0,37.9,30.8,16.9,0002.5,0012.43,0005.06,0004.13
2021-08-25 02:08:00,,0827.9,5.00,0.00,28.9,27.7,00.0,37.9,30.8,16.9,0002.6,0012.36,0005.06,0004.14
2021-08-25 02:09:00,,0828.0,5.01,0.00,29.0,27.9,00.0,38.0,30.9,16.8,0002.5,0012.69,0005.10,0004.15
2021-08-25 02:10:00,,0827.9,5.00,0.00,29.1,28.1,00.0,38.0,31.0,16.7,0002.7,0012.81,0005.12,0004.14
2021-08-25 02:11:00,,0828.0,5.00,0.00,29.1,28.3,00.0,38.0,31.1,16.6,0003.0,0013.15,0005.16,0004.14
2021-08-25 02:12:00,,0828.0,5.01,0.00,29.2,28.4,00.0,38.0,31.2,16.6,0002.9,0013.03,0005.19,0004.14
2021-08-25 02:13:00,,0828.0,5.00,0.00,29.2,28.6,00.0,38.1,31.2,16.5,0003.0,0013.09,0005.22,0004.16
2021-08-25 02:14:00,,0828.0,5.00,0.00,29.3,27.9,00.0,38.1,31.1,16.4,0002.7,0013.58,0005.25,0004.16
2021-08-25 02:15:00,,0828.0,5.01,0.00,29.1,26.4,00.0,38.1,30.6,16.5,0002.8,0013.81,0005.29,0004.16
2021-08-25 02:16:00,,0828.0,4.99,0.00,29.1,26.3,00.0,38.1,30.6,16.5,0002.9,0014.35,0005.28,0004.17
2021-08-25 02:17:00,,0828.0,5.00,0.00,29.0,26.6,00.0,38.1,30.7,16.5,0003.1,0015.06,0005.33,0004.17
2021-08-25 02:18:00,,0828.0,4.99,0.00,29.0,27.0,00.0,38.1,30.8,16.5,0003.0,0015.73,0005.37,0004.19
2021-08-25 02:19:00,,0828.0,5.01,0.00,29.1,27.4,00.0,38.1,30.9,16.4,0003.0,0015.50,0005.43,0004.18
2021-08-25 02:20:00,,0828.1,4.99,0.00,29.1,27.7,00.0,38.1,31.0,16.4,0002.8,0014.91,0005.44,0004.19
2021-08-25 02:21:00,,0828.1,5.00,0.00,29.2,27.9,00.0,38.1,31.1,16.4,0002.9,0014.86,0005.41,0004.19
2021-08-25 02:22:00,,0828.1,5.00,0.00,29.2,28.2,00.0,38.1,31.1,16.2,0002.8,0014.57,0005.35,0004.19
2021-08-25 02:23:00,,0828.1,5.00,0.00,29.3,28.4,00.0,38.2,31.2,16.1,0002.7,0015.12,0005.36,0004.19
2021-08-25 02:24:00,,0828.1,5.01,0.00,29.3,28.5,00.0,38.2,31.3,16.0,0002.6,0015.34,0005.34,0004.17
2021-08-25 02:25:00,,0828.1,4.99,0.00,29.3,27.2,00.0,38.2,30.9,16.0,0002.9,0016.15,0005.35,0004.18
2021-08-25 02:26:00,,0828.2,5.01,0.00,29.1,25.4,00.0,38.2,30.4,16.2,0003.0,0016.68,0005.30,0004.17
2021-08-25 02:27:00,,0828.1,5.01,0.00,29.0,25.3,00.0,38.1,30.3,16.3,0003.2,0016.98,0005.27,0004.18
2021-08-25 02:28:00,,0828.1,5.00,0.00,28.9,25.8,00.0,38.1,30.4,16.4,0002.9,0016.36,0005.23,0004.18
2021-08-25 02:29:00,,0828.1,4.98,0.00,28.9,26.3,00.0,38.1,30.5,16.3,0002.9,0015.80,0005.18,0004.18
2021-08-25 02:30:00,,0828.1,5.01,0.00,28.9,26.8,00.0,38.1,30.7,16.3,0002.6,0017.45,0005.17,0004.20
2021-08-25 02:31:00,,0828.1,4.99,0.00,28.9,27.2,00.0,38.0,30.8,16.3,0002.7,0017.73,0005.18,0004.20
2021-08-25 02:32:00,,0828.1,5.00,0.00,29.0,27.5,00.0,38.0,30.9,16.2,0002.5,0017.83,0005.18,0004.20
2021-08-25 02:33:00,,0828.3,5.01,0.00,29.0,27.8,00.0,38.1,30.9,16.1,0002.2,0018.84,0005.19,0004.21
2021-08-25 02:34:00,,0828.2,5.01,0.00,29.1,28.0,00.0,38.1,31.0,16.1,0002.5,0017.98,0005.13,0004.21
2021-08-25 02:35:00,,0828.2,4.99,0.00,29.1,28.2,00.0,38.1,31.1,16.2,0002.3,0017.35,0005.14,0004.22
2021-08-25 02:36:00,,0828.3,5.01,0.00,29.2,28.3,00.0,38.1,31.2,16.1,0002.1,0016.80,0005.13,0004.22
2021-08-25 02:37:00,,0828.2,4.99,0.00,29.3,28.4,00.0,38.2,31.2,15.9,0001.9,0017.63,0005.14,0004.21
2021-08-25 02:38:00,,0828.3,5.00,0.00,29.3,28.6,00.0,38.2,31.3,16.0,0001.9,0016.89,0005.14,0004.20
2021-08-25 02:39:00,,0828.2,4.99,0.00,29.3,28.0,00.0,38.2,31.1,16.0,0002.3,0016.75,0005.13,0004.21
2021-08-25 02:40:00,,0828.3,4.99,0.00,29.2,26.0,00.0,38.2,30.5,16.0,0002.4,0017.29,0005.16,0004.22
2021-08-25 02:41:00,,0828.2,5.00,0.00,29.0,25.2,00.0,38.2,30.3,16.2,0002.8,0016.22,0005.17,0004.21
2021-08-25 02:42:00,,0828.2,5.01,0.00,28.9,25.5,00.0,38.1,30.4,16.2,0002.9,0016.86,0005.17,0004.20
2021-08-25 02:43:00,,0828.2,5.00,0.00,28.9,26.1,00.0,38.1,30.5,16.2,0003.0,0017.03,0005.21,0004.21
2021-08-25 02:44:00,,0828.2,4.99,0.00,28.9,26.5,00.0,38.1,30.6,16.2,0003.2,0016.27,0005.23,0004.22
2021-08-25 02:45:00,,0828.2,5.01,0.00,28.9,26.9,00.0,38.1,30.7,16.1,0003.0,0016.49,0005.30,0004.22
2021-08-25 02:46:00,,0828.3,5.01,0.00,29.0,27.3,00.0,38.1,30.8,16.0,0002.9,0016.49,0005.30,0004.22
2021-08-25 02:47:00,,0828.3,5.00,0.00,29.0,27.6,00.0,38.1,30.9,16.0,0003.0,0015.53,0005.25,0004.21
2021-08-25 02:48:00,,0828.3,4.98,0.00,29.1,27.8,00.0,38.1,31.0,15.9,0002.9,0014.43,0005.23,0004.22
2021-08-25 02:49:00,,0828.3,5.00,0.00,29.1,28.0,00.0,38.1,31.0,15.8,0002.7,0014.22,0005.27,0004.23
2021-08-25 02:50:00,,0828.3,5.00,0.00,29.2,28.2,00.0,38.1,31.1,15.8,0002.7,0014.41,0005.31,0004.22
2021-08-25 02:51:00,,0828.3,5.00,0.00,29.2,28.3,00.0,38.1,31.1,15.7,0002.5,0013.80,0005.30,0004.21
2021-08-25 02:52:00,,0828.3,5.01,0.00,29.3,28.4,00.0,38.2,31.2,15.7,0001.9,0013.41,0005.27,0004.19
2021-08-25 02:53:00,,0828.3,4.99,0.00,29.3,28.5,00.0,38.2,31.3,15.8,0002.0,0011.89,0005.21,0004.18
2021-08-25 02:54:00,,0828.3,4.99,0.00,29.4,28.5,00.0,38.2,31.3,15.8,0001.6,0012.12,0005.24,0004.17
2021-08-25 02:55:00,,0828.3,5.01,0.00,29.3,27.0,00.0,38.2,30.9,15.8,0001.6,0012.62,0005.25,0004.18
2021-08-25 02:56:00,,0828.3,5.00,0.00,29.2,26.2,00.0,38.2,30.6,15.9,0001.7,0012.53,0005.20,0004.17
2021-08-25 02:57:00,,0828.3,5.00,0.00,29.1,26.4,00.0,38.2,30.6,16.0,0002.0,0012.54,0005.17,0004.17
2021-08-25 02:58:00,,0828.3,5.00,0.00,29.1,26.7,00.0,38.2,30.7,16.1,0001.8,0013.56,0005.21,0004.17
2021-08-25 02:59:00,,0828.3,5.01,0.00,29.1,27.1,00.0,38.2,30.9,16.1,0001.9,0013.89,0005.26,0004.18
